Sioux Falls, SD

11:23 PM CST on December 13, 2019 (GMT -0600)
Foss

Weather History for KFSD - November, 2019

Change the Weather History Date:

Saturday, November 16, 2019

  Actual Average Record
Temperature  
Mean Temperature 46 °F 32 °F  
Max Temperature 54 °F 42 °F 74 °F (1953)
Min Temperature 37 °F 23 °F -6 °F (1959)
Degree Days  
Heating Degree Days 20 33  
Month to date heating degree days 550 453  
Since 1 July heating degree days 1222 1193  
Cooling Degree Days 0 0  
Month to date cooling degree days 0 0  
Year to date cooling degree days 830 690  
Moisture  
Dew Point 32 °F    
Average Humidity 63    
Maximum Humidity 86    
Minimum Humidity 45    
Precipitation  
Precipitation 0.01 in 0.05 in 1.15 in (1971)
Month to date precipitation 0.39 0.74  
Year to date precipitation 37.34 25.07  
Snow  
Snow 0.00 in 0.30 in 4.00 in (1909)
Month to date snowfall 1.9 3.1  
Since 1 July snowfall 2.8 4.4  
Since 1 September snowfall 2.8 4.4  
Snow Depth 0.00 in    
Sea Level Pressure  
Sea Level Pressure 30.00 in    
Wind  
Wind Speed 13 mph ()    
Max Wind Speed 24 mph    
Max Gust Speed 33 mph    
Visibility 10.0 miles    
Events Rain    
T = Trace of Precipitation, MM = Missing Value Source: Averaged Metar Reports

Daily Weather History Graph

Daily Weather History Graph

Search for Another Location

Airport or City:

Astronomy

Nov. 16, 2019 Rise Set
Actual Time 7:21 AM CST 5:01 PM CST
Civil Twilight 6:50 AM CST 5:32 PM CST
Nautical Twilight 6:16 AM CST 6:06 PM CST
Astronomical Twilight 5:42 AM CST 6:40 PM CST
Moon 8:31 PM CST (11/16) 11:20 AM CST (11/16)
Length of Visible Light 10h 41m
Length of Day
9h 39m
Waning Gibbous, 82% of the Moon is Illuminated
Nov 16
Waning Gibbous
Nov 19
Last Quarter
Nov 26
New
Dec 4
First Quarter
Dec 11
Full

Hourly Weather History & Observations

Time (CST) Temp. Windchill Dew Point Humidity Pressure Visibility Wind Dir Wind Speed Gust Speed Precip Events Conditions
12:56 AM 43.0 °F 35.4 °F 30.0 °F 60% 30.09 in 10.0 mi South 16.1 mph 26.5 mph N/A   Clear
1:56 AM 42.1 °F 34.2 °F 30.0 °F 62% 30.06 in 10.0 mi South 16.1 mph 25.3 mph N/A   Clear
2:56 AM 42.1 °F 33.3 °F 28.9 °F 60% 30.05 in 10.0 mi South 19.6 mph 29.9 mph N/A   Clear
3:56 AM 41.0 °F 32.5 °F 28.9 °F 62% 30.03 in 10.0 mi South 17.3 mph - N/A   Clear
5:56 AM 39.9 °F 31.8 °F 28.0 °F 63% 30.03 in 10.0 mi South 15.0 mph - N/A   Mostly Cloudy
6:56 AM 39.0 °F 29.6 °F 28.0 °F 65% 30.04 in 10.0 mi South 18.4 mph 25.3 mph N/A   Scattered Clouds
7:56 AM 37.9 °F 29.2 °F 28.0 °F 68% 30.04 in 10.0 mi South 15.0 mph - N/A   Partly Cloudy
8:56 AM 39.9 °F 30.8 °F 28.0 °F 63% 30.01 in 10.0 mi South 18.4 mph 28.8 mph N/A   Partly Cloudy
9:56 AM 45.0 °F 37.6 °F 28.9 °F 53% 30.00 in 10.0 mi South 17.3 mph 29.9 mph N/A   Partly Cloudy
10:56 AM 46.0 °F 38.3 °F 30.0 °F 54% 29.99 in 10.0 mi South 20.7 mph 31.1 mph N/A   Mostly Cloudy
11:56 AM 50.0 °F - 30.9 °F 48% 29.94 in 10.0 mi South 23.0 mph 31.1 mph N/A   Mostly Cloudy
1:56 PM 52.0 °F - 32.0 °F 47% 29.90 in 10.0 mi South 17.3 mph 25.3 mph N/A   Mostly Cloudy
3:56 PM 50.0 °F - 32.0 °F 50% 29.92 in 10.0 mi South 8.1 mph - N/A   Overcast
4:56 PM 48.0 °F - 32.0 °F 54% 29.94 in 10.0 mi South 3.5 mph - N/A   Overcast
5:56 PM 46.9 °F - 33.1 °F 59% 29.96 in 10.0 mi Calm Calm - N/A   Overcast
6:56 PM 44.1 °F - 33.1 °F 65% 29.97 in 10.0 mi Calm Calm - N/A   Overcast
7:56 PM 44.1 °F 41.5 °F 34.0 °F 68% 30.00 in 10.0 mi West 4.6 mph - 0.00 in Rain Light Rain
8:56 PM 42.1 °F 35.2 °F 37.0 °F 82% 30.00 in 10.0 mi NW 12.7 mph - 0.00 in Rain Light Rain
9:56 PM 42.1 °F 35.7 °F 37.0 °F 82% 30.01 in 10.0 mi WNW 11.5 mph - 0.00 in Rain Light Rain
10:56 PM 42.1 °F 35.7 °F 37.0 °F 82% 30.00 in 10.0 mi NW 11.5 mph - 0.01 in   Overcast
11:56 PM 41.0 °F 34.3 °F 37.0 °F 86% 30.00 in 10.0 mi NW 11.5 mph - 0.00 in Rain Light Rain